Wind_Speed
51 53 56 58 62 65 66 64 61 58 56 54 53 51 50 47 44 41 38 34 31 28 25 22 20 18 17 15 14 13 12 11 10 9 8 7 6 6 5 5 5 6 6 6 5 5 5 5 4
51 52 56 60 64 67 66 63 60 58 56 55 55 53 51 49 46 42 39 36 33 30 27 25 23 20 18 17 15 14 13 12 11 10 9 8 8 7 6 6 6 6 6 6 6 6 5 5 5
51 53 55 61 66 67 64 61 58 57 58 56 56 55 52 50 47 44 41 38 35 32 29 27 25 22 20 19 17 16 15 14 13 12 11 10 9 8 7 7 7 7 7 7 6 6 6 5 5
49 54 57 61 65 64 61 58 56 58 59 58 57 56 54 50 48 45 42 40 37 34 32 29 27 24 22 21 19 18 16 15 14 13 12 11 10 9 9 8 8 8 7 7 7 7 6 6 6
49 53 59 61 63 60 57 57 58 59 60 59 58 56 54 52 49 47 45 42 39 36 34 31 29 27 24 23 21 20 18 17 16 14 14 13 12 11 10 9 9 9 8 8 8 8 7 7 7
48 51 59 60 58 56 54 55 58 60 60 59 58 56 55 52 49 48 46 44 41 39 36 34 31 29 27 25 23 22 20 19 17 16 15 14 13 12 11 11 10 10 10 9 9 9 8 8 8
47 51 54 55 56 55 54 54 57 59 59 58 58 56 55 52 50 48 47 45 43 40 38 36 33 31 29 27 25 23 22 20 19 18 16 15 15 14 13 12 12 12 11 11 10 10 10 10 10
45 50 52 52 53 54 53 54 54 56 58 57 58 57 54 52 51 49 48 47 45 42 40 38 35 33 31 29 27 25 23 22 20 19 18 17 16 15 15 14 13 13 12 12 12 12 11 11 11
45 49 52 51 50 50 51 53 54 54 57 57 58 58 54 54 52 51 48 47 46 44 42 40 37 35 32 30 28 26 25 23 22 21 19 18 18 17 16 15 15 14 14 14 13 13 13 13 12
45 47 47 48 48 48 50 52 52 53 55 56 55 56 55 53 51 51 49 48 46 45 42 41 39 36 34 32 30 28 26 24 23 22 21 20 19 18 18 17 17 16 16 16 15 15 14 14 14
44 44 43 46 48 49 50 51 52 53 55 54 53 53 53 52 50 50 47 48 46 44 43 41 40 38 35 33 31 29 27 25 24 23 22 22 21 20 20 19 19 18 18 17 17 16 16 16 16
42 42 43 44 47 49 50 49 51 51 53 53 52 52 51 50 47 47 47 49 47 46 44 43 41 39 37 34 32 30 28 27 26 25 24 23 23 22 21 21 20 20 19 19 19 18 18 18 18
40 40 41 43 46 49 49 47 49 49 51 51 50 51 51 49 46 46 46 47 47 46 45 44 43 41 39 36 33 31 30 28 27 26 25 24 24 23 23 22 22 22 22 21 21 20 20 20 20
37 38 40 42 45 47 47 46 47 48 49 49 49 50 50 49 47 46 47 44 45 46 45 44 42 41 39 37 35 33 32 30 29 27 26 25 25 24 24 24 24 24 23 23 23 23 23 23 23
33 36 39 41 45 46 46 47 47 47 48 49 49 48 49 49 46 44 43 43 42 44 44 44 42 40 38 37 36 35 33 32 31 29 27 26 26 26 26 26 25 25 25 25 25 25 26 26 26
30 34 38 41 43 45 45 45 46 47 47 47 47 47 48 49 47 45 42 41 40 40 40 42 41 39 38 38 37 36 34 33 32 31 30 29 28 27 27 27 27 27 27 27 27 28 28 28 28
27 32 35 39 42 43 44 44 44 46 46 46 48 47 46 45 45 43 40 39 39 39 38 39 39 38 37 37 37 37 36 35 34 33 32 31 30 30 29 29 29 29 29 29 30 30 30 30 31
24 28 33 36 38 40 43 43 44 44 46 46 47 47 44 43 42 41 39 38 38 38 36 38 37 37 38 38 38 37 37 37 36 35 34 34 33 32 31 31 31 31 31 32 32 32 33 33 34
21 24 29 32 36 37 39 40 42 40 45 45 45 46 46 43 42 40 39 37 36 37 36 37 37 37 37 37 37 38 37 37 37 37 36 35 35 34 34 33 33 33 34 34 34 35 35 36 36
18 22 25 28 32 34 36 37 39 38 41 44 43 44 44 43 42 41 38 36 36 36 37 36 36 37 37 37 38 38 38 39 38 38 37 37 36 37 37 36 36 36 36 36 37 37 38 38 39
14 19 21 23 28 31 32 33 34 38 39 41 42 42 43 43 42 40 39 38 36 35 35 36 37 37 37 37 38 39 39 39 39 38 37 38 38 36 36 36 37 37 37 38 38 38 38 39 40
12 16 18 20 24 27 29 30 31 34 39 41 41 41 40 41 42 41 39 39 38 36 36 37 37 37 37 37 36 37 39 39 38 38 39 38 38 38 37 38 38 39 39 39 40 40 40 41 41
11 14 15 17 19 22 25 27 29 30 35 38 40 39 38 39 41 41 39 40 40 39 38 39 39 38 38 38 37 36 37 38 39 38 38 40 40 39 39 39 40 41 41 41 41 41 42 43 43
11 12 14 15 16 18 20 23 24 26 27 33 36 38 37 37 38 39 39 39 40 39 38 38 38 38 37 38 38 38 38 38 38 38 37 37 38 39 39 39 41 41 41 42 42 42 43 44 44
10 11 12 15 14 14 17 19 20 23 24 28 32 34 35 35 36 36 38 39 40 39 39 39 38 38 37 38 38 38 38 38 38 37 37 37 37 39 39 39 40 41 41 42 43 44 44 44 45
9 10 11 12 12 12 15 16 17 20 22 24 28 30 33 33 35 36 37 38 39 39 40 40 40 39 39 39 39 38 38 37 37 38 39 39 39 40 41 41 41 42 43 43 43 44 44 45 46
8 8 10 9 10 10 11 13 15 17 20 23 26 29 31 32 33 34 35 36 38 39 40 41 41 41 41 40 40 39 39 39 39 40 41 41 42 42 42 43 44 44 44 45 45 45 46 46 46
7 8 9 9 9 10 10 12 13 16 19 22 25 28 30 31 32 32 34 35 37 38 39 39 40 42 42 42 42 41 41 41 42 42 43 44 44 44 45 45 44 44 45 45 46 46 46 46 46
6 8 8 9 9 10 10 11 13 14 17 20 24 27 29 31 32 33 33 34 35 37 38 39 39 40 41 41 41 41 42 43 44 44 45 45 45 45 45 46 46 46 46 46 46 46 46 47 47
6 7 7 8 8 9 9 10 12 13 15 17 20 23 27 29 31 32 34 35 35 37 38 39 39 40 40 41 41 42 43 43 44 45 45 46 46 47 47 48 47 47 47 47 46 46 46 46 46
Wind_Direction
245 239 234 231 230 229 228 225 222 220 220 219 219 219 221 222 223 223 223 222 223 224 224 222 222 222 222 224 223 223 222 222 223 225 228 234 242 253 264 274 283 289 294 298 298 299 302 306 309
243 237 232 230 229 230 228 225 221 219 219 219 219 219 219 220 222 222 222 222 222 222 223 222 222 223 223 223 223 223 223 223 224 227 231 235 242 252 262 271 278 283 287 291 292 293 296 297 298
241 235 231 229 230 230 228 225 221 219 218 218 218 218 217 218 220 220 221 221 220 221 222 222 222 222 223 224 224 223 224 225 226 228 232 237 242 250 258 266 272 279 283 285 286 288 291 292 291
239 233 229 228 230 229 227 223 220 218 218 218 217 217 217 217 218 218 219 220 220 220 221 222 221 222 222 223 224 224 224 226 228 229 233 237 242 248 255 262 268 273 278 282 284 286 286 287 287
237 233 229 228 228 227 224 221 219 217 216 217 217 217 216 215 216 217 217 218 219 220 220 221 221 221 222 222 223 224 224 227 228 230 233 237 242 248 254 260 265 269 273 277 280 280 281 281 282
235 231 229 229 226 224 221 219 219 216 215 215 216 216 214 214 214 215 216 217 218 219 219 220 221 221 221 222 223 223 224 227 229 230 234 237 241 247 252 258 262 265 268 272 274 275 278 279 279
233 231 229 228 224 222 219 218 217 216 214 215 216 216 214 212 212 212 214 216 217 218 219 220 220 220 221 221 222 223 224 226 228 230 234 238 242 246 250 255 259 262 265 268 270 271 274 275 275
231 230 227 225 223 220 218 217 216 215 214 214 216 215 212 210 212 211 211 214 216 217 218 219 218 219 220 221 222 223 224 226 228 230 233 237 242 245 249 252 256 259 263 265 267 268 270 271 271
229 229 226 222 220 218 216 217 216 215 214 214 214 214 212 211 211 211 211 212 214 215 216 216 217 218 219 220 221 222 224 226 228 230 233 237 240 244 248 251 255 258 260 262 264 266 267 268 269
227 229 224 221 219 216 214 216 216 215 215 214 215 214 214 212 211 211 212 210 211 213 213 213 215 216 217 218 220 221 223 225 228 231 234 237 240 244 247 250 254 257 259 260 262 264 265 267 268
226 225 221 220 217 214 212 213 214 214 215 213 215 216 216 213 211 209 210 210 209 210 212 212 214 215 216 217 219 221 223 225 228 231 234 238 241 244 247 250 253 256 258 259 261 262 263 265 268
222 219 217 217 215 214 211 210 211 212 214 213 214 216 217 215 213 210 210 210 210 210 212 212 212 213 214 215 218 219 222 225 228 230 234 237 241 244 247 251 254 256 257 259 260 261 263 266 268
219 216 214 214 213 212 210 209 209 211 212 212 213 215 216 216 213 209 208 211 211 210 211 212 212 213 213 214 216 218 222 226 228 231 234 237 241 244 248 251 254 256 258 259 261 262 264 267 269
215 214 213 213 213 212 211 209 208 208 211 212 213 215 216 217 216 214 213 213 215 213 211 210 213 214 215 216 217 219 222 226 229 231 234 237 241 245 247 251 254 256 258 260 262 264 265 267 269
215 214 211 211 212 211 211 210 207 207 210 212 213 215 217 216 217 215 216 215 216 216 214 211 212 214 217 220 220 221 224 227 230 232 235 239 242 245 248 250 253 256 259 261 263 265 267 269 271
216 214 212 208 209 210 210 208 207 208 209 210 212 214 218 219 219 218 218 216 216 216 217 215 214 216 219 222 223 224 227 230 232 234 236 239 242 245 248 251 253 256 258 261 263 266 268 270 272
214 216 214 210 209 210 210 208 208 209 209 210 212 214 217 219 220 220 219 217 217 219 219 217 218 219 222 224 225 227 229 231 234 236 238 240 242 245 248 251 253 256 258 261 264 266 269 271 273
215 215 214 211 209 209 210 210 209 209 211 212 214 215 218 219 220 221 220 221 221 223 224 222 221 222 224 226 227 229 231 234 236 238 241 243 244 246 248 251 253 256 259 261 264 267 269 271 273
214 212 212 211 209 208 209 212 210 208 210 212 213 216 219 221 222 222 223 222 222 222 224 225 224 225 226 229 231 232 233 236 240 241 242 245 246 247 249 251 254 256 259 261 263 266 268 271 273
210 208 208 209 210 209 210 211 212 209 210 213 215 217 218 221 224 223 224 224 224 224 226 226 227 228 231 234 235 238 239 240 242 241 243 246 248 249 250 252 255 257 260 262 264 266 269 271 273
201 199 202 208 212 213 213 213 214 214 212 214 216 218 219 223 226 227 227 228 229 229 229 229 229 230 233 237 239 241 241 242 243 243 246 248 247 249 252 255 256 258 260 263 265 268 270 272 275
195 193 199 206 210 214 215 215 214 215 216 216 217 219 220 223 227 229 231 231 232 232 232 232 233 234 235 237 241 243 243 242 243 246 249 249 250 251 253 257 259 261 263 265 267 269 270 273 276
183 187 194 201 205 212 217 218 215 215 218 218 218 220 221 223 226 230 233 235 237 237 238 239 240 242 241 240 242 243 244 244 244 246 251 252 254 256 256 258 261 264 265 266 268 270 271 274 276
180 190 197 202 207 213 216 218 214 215 217 217 219 220 223 225 227 230 233 236 237 239 240 242 242 243 244 244 243 244 247 248 248 250 252 254 257 258 259 262 264 266 267 267 269 271 273 275 277
177 194 205 211 215 213 215 221 221 220 221 222 222 223 224 227 230 232 235 237 239 241 242 243 245 246 247 249 248 248 250 252 252 254 257 258 259 259 261 264 265 267 269 270 272 273 275 277 279
173 188 201 211 215 217 221 223 224 228 227 226 226 227 227 230 233 235 237 240 241 243 245 247 247 248 250 251 251 252 254 256 257 258 260 262 262 264 265 268 268 269 271 274 275 275 275 278 280
170 183 196 206 214 215 220 227 229 231 233 232 230 231 232 233 235 237 239 241 242 244 246 247 248 248 250 252 253 255 258 260 260 261 262 262 264 266 269 270 270 272 273 274 275 276 277 280 281
170 178 185 200 214 220 223 223 229 233 237 238 238 235 235 237 238 239 241 242 244 245 246 248 249 249 251 254 255 257 258 259 260 262 263 265 265 267 269 271 271 272 273 274 276 278 279 280 281
172 184 193 202 213 218 221 226 230 235 240 243 245 243 242 241 241 242 243 245 246 247 248 248 250 251 252 255 256 257 258 259 260 262 263 264 266 267 269 271 272 273 274 275 276 278 279 280 281
191 196 204 207 212 215 220 223 230 236 240 243 244 244 246 247 249 248 249 251 251 251 252 252 253 253 254 256 257 257 258 259 261 262 263 265 267 268 270 272 273 273 274 275 277 278 279 280 281
Height
5734 5738 5742 5746 5749 5750 5756 5769 5781 5791 5798 5805 5811 5816 5821 5828 5835 5843 5846 5849 5852 5855 5858 5860 5862 5864 5866 5868 5870 5871 5872 5873 5874 5875 5875 5876 5877 5877 5878 5878 5878 5879 5879 5879 5879 5879 5879 5879 5879
5723 5726 5731 5734 5735 5738 5748 5761 5773 5784 5792 5798 5804 5809 5815 5821 5828 5835 5840 5844 5847 5851 5854 5857 5859 5861 5863 5865 5867 5868 5870 5871 5872 5873 5874 5875 5875 5876 5877 5877 5877 5878 5878 5878 5878 5878 5878 5878 5878
5711 5715 5719 5721 5722 5729 5743 5757 5769 5778 5783 5790 5796 5802 5808 5815 5822 5829 5834 5839 5843 5847 5850 5853 5856 5858 5860 5863 5865 5866 5867 5869 5870 5871 5872 5873 5874 5875 5875 5876 5876 5877 5877 5877 5877 5877 5877 5877 5877
5699 5703 5706 5709 5713 5724 5738 5752 5761 5768 5774 5781 5788 5795 5802 5810 5817 5823 5829 5833 5838 5842 5846 5849 5852 5855 5857 5859 5862 5863 5865 5866 5867 5869 5870 5871 5872 5873 5874 5874 5875 5875 5875 5876 5876 5876 5876 5876 5876
5687 5691 5694 5697 5705 5718 5731 5742 5750 5757 5765 5773 5781 5788 5795 5803 5810 5816 5822 5827 5832 5837 5841 5845 5848 5851 5853 5856 5858 5860 5862 5864 5865 5866 5868 5869 5870 5871 5872 5873 5873 5874 5874 5874 5875 5875 5875 5875 5875
5676 5680 5683 5688 5699 5712 5723 5733 5740 5748 5757 5765 5773 5780 5788 5796 5804 5810 5816 5822 5826 5831 5836 5840 5843 5847 5849 5852 5855 5857 5859 5861 5862 5864 5865 5866 5868 5869 5870 5871 5871 5872 5872 5873 5873 5873 5873 5873 5873
5667 5670 5675 5684 5693 5703 5715 5724 5732 5740 5749 5759 5766 5774 5781 5789 5797 5803 5810 5815 5820 5825 5830 5835 5838 5842 5845 5848 5851 5853 5855 5857 5859 5861 5862 5864 5865 5866 5867 5868 5869 5870 5870 5871 5871 5871 5871 5872 5872
5657 5662 5667 5675 5685 5697 5708 5715 5724 5733 5742 5751 5758 5766 5775 5783 5790 5796 5802 5808 5814 5819 5824 5829 5833 5837 5841 5844 5847 5849 5851 5854 5856 5857 5859 5861 5862 5863 5865 5866 5867 5867 5868 5868 5869 5869 5869 5869 5869
5649 5653 5659 5670 5680 5691 5700 5707 5716 5725 5734 5742 5750 5760 5769 5776 5782 5788 5795 5801 5807 5813 5818 5823 5828 5832 5836 5839 5842 5845 5847 5850 5852 5854 5855 5857 5859 5860 5862 5863 5864 5865 5865 5866 5866 5867 5867 5867 5867
5640 5645 5655 5666 5674 5684 5692 5700 5710 5718 5727 5736 5744 5753 5761 5768 5775 5781 5788 5794 5801 5807 5812 5817 5822 5826 5830 5834 5837 5840 5843 5845 5848 5850 5852 5854 5855 5857 5858 5859 5860 5861 5862 5863 5863 5864 5864 5864 5864
5632 5640 5650 5658 5666 5675 5684 5693 5703 5711 5721 5730 5739 5747 5754 5761 5768 5775 5781 5787 5793 5799 5805 5810 5815 5820 5825 5829 5832 5836 5838 5841 5844 5846 5848 5850 5851 5853 5854 5856 5857 5858 5859 5859 5860 5860 5860 5861 5861
5627 5635 5643 5650 5659 5668 5677 5687 5696 5705 5715 5724 5733 5740 5747 5755 5762 5769 5775 5780 5786 5792 5798 5804 5809 5814 5819 5823 5827 5830 5833 5836 5839 5841 5843 5845 5847 5849 5850 5852 5853 5854 5855 5855 5856 5856 5856 5857 5857
5621 5630 5637 5645 5653 5662 5671 5680 5690 5700 5709 5718 5726 5734 5742 5748 5755 5763 5769 5775 5780 5786 5791 5796 5802 5807 5812 5817 5821 5825 5828 5831 5834 5836 5838 5840 5842 5844 5846 5847 5848 5849 5850 5851 5852 5852 5852 5852 5852
5618 5624 5632 5639 5648 5656 5665 5675 5685 5695 5704 5712 5721 5729 5736 5743 5750 5757 5764 5770 5776 5781 5786 5790 5796 5801 5806 5811 5815 5819 5822 5826 5829 5831 5833 5835 5837 5839 5841 5842 5843 5844 5845 5846 5847 5847 5847 5847 5847
5614 5621 5628 5635 5643 5652 5661 5669 5680 5690 5698 5707 5715 5723 5730 5737 5744 5752 5758 5765 5771 5776 5781 5786 5791 5796 5800 5805 5809 5813 5816 5820 5823 5825 5828 5830 5832 5833 5835 5837 5838 5839 5840 5841 5841 5842 5842 5842 5842
5612 5618 5624 5632 5640 5648 5657 5666 5676 5684 5692 5701 5710 5718 5725 5731 5739 5746 5752 5759 5765 5771 5777 5781 5785 5790 5795 5799 5803 5807 5811 5814 5817 5819 5822 5824 5826 5827 5829 5831 5832 5833 5834 5835 5836 5836 5836 5836 5836
5610 5615 5621 5630 5636 5644 5653 5663 5671 5679 5687 5696 5704 5712 5719 5726 5733 5740 5746 5753 5759 5765 5771 5776 5781 5785 5790 5794 5798 5801 5804 5807 5810 5813 5815 5817 5819 5821 5823 5824 5825 5827 5828 5829 5829 5830 5830 5830 5830
5609 5614 5620 5627 5634 5642 5650 5659 5667 5674 5683 5692 5700 5707 5715 5721 5728 5735 5741 5747 5753 5759 5765 5771 5775 5779 5784 5787 5791 5795 5798 5801 5804 5806 5808 5810 5812 5814 5816 5817 5818 5820 5821 5821 5822 5823 5823 5823 5823
5608 5613 5619 5626 5633 5640 5648 5655 5663 5671 5679 5688 5695 5703 5710 5717 5723 5730 5736 5742 5747 5753 5759 5764 5769 5774 5777 5782 5785 5789 5792 5795 5797 5799 5801 5803 5805 5806 5808 5810 5811 5812 5813 5814 5815 5815 5815 5815 5815
5609 5614 5620 5626 5633 5639 5646 5653 5660 5668 5676 5684 5691 5698 5705 5712 5718 5725 5731 5737 5742 5748 5752 5758 5763 5767 5771 5776 5779 5783 5785 5788 5790 5792 5794 5795 5797 5798 5800 5801 5803 5804 5805 5806 5806 5807 5807 5807 5807
5611 5616 5621 5627 5633 5638 5645 5652 5659 5666 5673 5680 5688 5695 5702 5708 5714 5720 5726 5731 5737 5741 5746 5751 5756 5760 5764 5768 5772 5775 5777 5780 5782 5784 5786 5788 5789 5790 5792 5793 5795 5796 5797 5798 5798 5798 5799 5799 5798
5613 5617 5622 5628 5633 5639 5645 5651 5658 5663 5670 5678 5685 5692 5698 5704 5710 5715 5721 5726 5731 5736 5740 5744 5749 5753 5757 5761 5764 5767 5769 5772 5775 5777 5778 5780 5781 5782 5784 5785 5787 5787 5788 5789 5789 5790 5790 5790 5789
5615 5619 5624 5630 5634 5640 5645 5651 5658 5663 5669 5675 5682 5688 5694 5700 5705 5710 5715 5720 5725 5730 5734 5737 5741 5745 5749 5752 5756 5758 5761 5764 5766 5768 5769 5771 5773 5774 5776 5777 5778 5779 5779 5780 5780 5781 5781 5780 5780
5618 5622 5626 5631 5636 5641 5645 5651 5658 5662 5667 5672 5678 5683 5689 5695 5700 5705 5710 5715 5719 5723 5727 5730 5734 5738 5741 5744 5747 5749 5752 5755 5757 5759 5761 5763 5764 5766 5767 5768 5769 5769 5770 5770 5771 5771 5771 5770 5770
5621 5625 5629 5632 5636 5642 5646 5651 5657 5660 5664 5669 5675 5680 5686 5691 5695 5700 5705 5709 5713 5717 5720 5723 5727 5730 5733 5736 5739 5741 5744 5746 5748 5750 5752 5754 5755 5757 5758 5759 5760 5760 5761 5761 5761 5761 5761 5760 5759
5623 5627 5631 5634 5638 5642 5646 5651 5656 5659 5663 5667 5672 5677 5682 5687 5691 5695 5699 5703 5706 5710 5713 5716 5719 5722 5725 5728 5731 5733 5735 5737 5739 5741 5743 5745 5746 5747 5748 5749 5750 5750 5751 5751 5751 5750 5750 5749 5749
5625 5628 5631 5635 5638 5643 5646 5651 5655 5657 5661 5665 5669 5673 5678 5682 5686 5690 5693 5697 5700 5703 5706 5709 5711 5714 5717 5719 5722 5724 5726 5728 5730 5732 5734 5735 5736 5737 5738 5739 5740 5740 5740 5741 5741 5740 5740 5739 5738
5627 5629 5633 5636 5639 5642 5646 5649 5653 5655 5658 5662 5666 5670 5674 5678 5681 5684 5687 5690 5693 5696 5698 5701 5703 5706 5708 5711 5713 5715 5717 5719 5721 5723 5724 5725 5726 5727 5728 5729 5729 5730 5730 5730 5729 5729 5728 5728 5727
5629 5631 5633 5636 5639 5642 5645 5650 5651 5653 5656 5659 5663 5666 5669 5673 5676 5679 5681 5684 5686 5688 5691 5693 5695 5697 5699 5701 5703 5705 5707 5709 5711 5712 5714 5715 5716 5717 5717 5718 5718 5719 5719 5719 5718 5718 5717 5716 5715
5629 5631 5634 5637 5639 5641 5644 5650 5649 5651 5654 5656 5659 5662 5664 5667 5669 5672 5674 5676 5678 5680 5682 5684 5686 5688 5690 5692 5694 5695 5697 5699 5700 5701 5703 5704 5705 5706 5706 5707 5707 5707 5707 5707 5707 5706 5706 5705 5703